Time,TemperatureF,DewpointF,PressureIn,WindDirection,WindDirectionDegrees,WindSpeedMPH,WindSpeedGustMPH,Humidity,HourlyPrecipIn,Conditions,Clouds,dailyrainin,SoftwareType,DateUTC
2013-03-25 00:00:00,28.1,26.3,29.58,NNE,18,5.0,16.0,93,0.00,,---,0.00,VWS V14.01,2013-03-25 04:00:00,
2013-03-25 00:05:00,28.1,26.3,29.58,ESE,107,2.0,17.0,93,0.00,,---,0.00,VWS V14.01,2013-03-25 04:05:00,
2013-03-25 00:10:00,28.1,26.3,29.58,North,354,5.0,17.0,93,0.00,,---,0.00,VWS V14.01,2013-03-25 04:10:00,
2013-03-25 00:15:00,28.1,26.3,29.58,North,359,6.0,17.0,93,0.00,,---,0.00,VWS V14.01,2013-03-25 04:15:00,
2013-03-25 00:20:00,28.1,26.3,29.58,NNW,343,6.0,17.0,93,0.00,,---,0.00,VWS V14.01,2013-03-25 04:20:00,
2013-03-25 00:25:00,28.1,26.3,29.58,NNW,333,6.0,17.0,93,0.00,,---,0.00,VWS V14.01,2013-03-25 04:25:00,
2013-03-25 00:30:00,28.0,26.5,29.58,NNW,337,9.0,11.0,94,0.00,,---,0.00,VWS V14.01,2013-03-25 04:30:00,
2013-03-25 00:35:00,28.0,26.5,29.57,NNE,33,9.0,14.0,94,0.00,,---,0.00,VWS V14.01,2013-03-25 04:35:00,
2013-03-25 00:40:00,28.0,26.5,29.57,North,352,3.0,14.0,94,0.00,,---,0.00,VWS V14.01,2013-03-25 04:40:00,
2013-03-25 00:45:00,28.0,26.5,29.57,NE,40,4.0,14.0,94,0.00,,---,0.00,VWS V14.01,2013-03-25 04:45:00,
2013-03-25 00:50:00,28.0,26.5,29.57,North,352,3.0,14.0,94,0.00,,---,0.00,VWS V14.01,2013-03-25 04:50:00,
2013-03-25 00:56:00,28.0,26.5,29.57,ENE,68,8.0,18.0,94,0.00,,---,0.00,VWS V14.01,2013-03-25 04:56:00,
2013-03-25 01:00:00,28.0,26.5,29.57,NNE,29,10.0,18.0,94,0.00,,---,0.00,VWS V14.01,2013-03-25 05:00:00,
2013-03-25 01:01:00,28.0,26.5,29.56,NNE,15,4.0,10.0,94,0.00,,---,0.00,VWS V14.01,2013-03-25 05:01:00,
2013-03-25 01:06:00,28.0,26.5,29.56,North,4,7.0,13.0,94,0.00,,---,0.00,VWS V14.01,2013-03-25 05:06:00,
2013-03-25 01:11:00,28.0,26.5,29.56,NNE,15,7.0,14.0,94,0.00,,---,0.00,VWS V14.01,2013-03-25 05:11:00,
2013-03-25 01:16:00,28.0,26.5,29.56,NNW,348,9.0,16.0,94,0.00,,---,0.00,VWS V14.01,2013-03-25 05:16:00,
2013-03-25 01:21:00,28.0,26.5,29.56,NNE,12,8.0,17.0,94,0.00,,---,0.00,VWS V14.01,2013-03-25 05:21:00,
2013-03-25 01:26:00,28.0,26.5,29.56,NNW,330,8.0,17.0,94,0.00,,---,0.00,VWS V14.01,2013-03-25 05:26:00,
2013-03-25 01:30:00,28.0,26.5,29.56,NNW,339,5.0,17.0,94,0.00,,---,0.00,VWS V14.01,2013-03-25 05:30:00,
2013-03-25 01:31:00,28.0,26.5,29.56,NNW,344,6.0,9.0,94,0.00,,---,0.00,VWS V14.01,2013-03-25 05:31:00,
2013-03-25 01:36:00,28.0,26.5,29.56,NNW,345,8.0,18.0,94,0.00,,---,0.00,VWS V14.01,2013-03-25 05:36:00,
2013-03-25 01:41:00,28.0,26.5,29.56,NNW,333,3.0,18.0,94,0.00,,---,0.00,VWS V14.01,2013-03-25 05:41:00,
2013-03-25 01:46:00,28.0,26.5,29.56,North,356,8.0,18.0,94,0.00,,---,0.00,VWS V14.01,2013-03-25 05:46:00,
2013-03-25 01:51:00,28.0,26.5,29.56,North,352,7.0,18.0,94,0.00,,---,0.00,VWS V14.01,2013-03-25 05:51:00,
2013-03-25 01:56:00,28.0,26.5,29.56,North,5,11.0,18.0,94,0.00,,---,0.00,VWS V14.01,2013-03-25 05:56:00,
2013-03-25 02:00:00,28.0,26.5,29.56,ENE,57,5.0,18.0,94,0.00,,---,0.00,VWS V14.01,2013-03-25 06:00:00,
2013-03-25 02:01:00,28.0,26.5,29.56,NW,323,4.0,7.0,94,0.00,,---,0.00,VWS V14.01,2013-03-25 06:01:00,
2013-03-25 02:06:00,28.1,26.6,29.56,NNE,12,9.0,12.0,94,0.00,,---,0.00,VWS V14.01,2013-03-25 06:06:00,
2013-03-25 02:11:00,28.1,26.6,29.56,North,5,4.0,16.0,94,0.00,,---,0.00,VWS V14.01,2013-03-25 06:11:00,
2013-03-25 02:16:00,28.0,26.8,29.56,North,352,4.0,16.0,95,0.00,,---,0.00,VWS V14.01,2013-03-25 06:16:00,
2013-03-25 02:21:00,28.0,26.8,29.56,NNW,335,4.0,16.0,95,0.00,,---,0.00,VWS V14.01,2013-03-25 06:21:00,
2013-03-25 02:26:00,28.0,26.8,29.55,NNE,15,5.0,16.0,95,0.00,,---,0.00,VWS V14.01,2013-03-25 06:26:00,
2013-03-25 02:30:00,28.0,26.8,29.55,NNW,332,7.0,16.0,95,0.00,,---,0.00,VWS V14.01,2013-03-25 06:30:00,
2013-03-25 02:32:00,28.0,26.8,29.55,North,359,6.0,9.0,95,0.00,,---,0.00,VWS V14.01,2013-03-25 06:32:00,
2013-03-25 02:37:00,28.0,26.8,29.56,NNE,13,11.0,13.0,95,0.00,,---,0.00,VWS V14.01,2013-03-25 06:37:00,
2013-03-25 02:42:00,28.0,26.8,29.55,NNW,339,6.0,13.0,95,0.00,,---,0.00,VWS V14.01,2013-03-25 06:42:00,
2013-03-25 02:47:00,28.1,26.9,29.55,NNW,340,7.0,14.0,95,0.00,,---,0.00,VWS V14.01,2013-03-25 06:47:00,
2013-03-25 02:52:00,28.0,26.8,29.55,NE,40,2.0,14.0,95,0.00,,---,0.00,VWS V14.01,2013-03-25 06:52:00,
2013-03-25 02:57:00,28.0,26.8,29.55,NNW,340,2.0,14.0,95,0.00,,---,0.00,VWS V14.01,2013-03-25 06:57:00,
2013-03-25 03:00:00,28.0,26.8,29.55,NNW,335,6.0,14.0,95,0.00,,---,0.00,VWS V14.01,2013-03-25 07:00:00,
2013-03-25 03:02:00,28.0,26.8,29.55,ENE,71,3.0,9.0,95,0.00,,---,0.00,VWS V14.01,2013-03-25 07:02:00,
2013-03-25 03:07:00,28.0,26.8,29.55,NE,49,5.0,12.0,95,0.00,,---,0.00,VWS V14.01,2013-03-25 07:07:00,
2013-03-25 03:12:00,28.0,26.8,29.55,NNE,12,4.0,12.0,95,0.00,,---,0.00,VWS V14.01,2013-03-25 07:12:00,
2013-03-25 03:17:00,28.0,26.8,29.55,NNE,15,6.0,12.0,95,0.00,,---,0.00,VWS V14.01,2013-03-25 07:17:00,
2013-03-25 03:22:00,28.0,26.8,29.55,NNW,348,5.0,12.0,95,0.00,,---,0.00,VWS V14.01,2013-03-25 07:22:00,
2013-03-25 03:27:00,28.0,26.8,29.54,NNW,340,7.0,13.0,95,0.00,,---,0.00,VWS V14.01,2013-03-25 07:27:00,
2013-03-25 03:30:00,28.0,26.8,29.54,NNE,32,7.0,13.0,95,0.00,,---,0.00,VWS V14.01,2013-03-25 07:30:00,
2013-03-25 03:32:00,28.0,26.8,29.54,NNW,345,8.0,14.0,95,0.00,,---,0.00,VWS V14.01,2013-03-25 07:32:00,
2013-03-25 03:37:00,28.0,26.8,29.54,NNW,335,9.0,14.0,95,0.00,,---,0.00,VWS V14.01,2013-03-25 07:37:00,
2013-03-25 03:42:00,28.0,26.8,29.54,NNW,343,8.0,15.0,95,0.00,,---,0.00,VWS V14.01,2013-03-25 07:42:00,
2013-03-25 03:47:00,28.0,26.8,29.54,NW,321,4.0,15.0,95,0.00,,---,0.00,VWS V14.01,2013-03-25 07:47:00,
2013-03-25 03:52:00,28.0,26.8,29.54,North,359,7.0,15.0,95,0.00,,---,0.00,VWS V14.01,2013-03-25 07:52:00,
2013-03-25 03:57:00,28.0,26.8,29.54,NW,326,7.0,15.0,95,0.00,,---,0.00,VWS V14.01,2013-03-25 07:57:00,
2013-03-25 04:00:00,28.0,26.8,29.53,NNW,340,3.0,15.0,95,0.00,,---,0.00,VWS V14.01,2013-03-25 08:00:00,
2013-03-25 04:02:00,28.0,26.8,29.53,NNE,20,8.0,10.0,95,0.00,,---,0.00,VWS V14.01,2013-03-25 08:02:00,
2013-03-25 04:07:00,27.9,26.7,29.53,NNW,331,4.0,12.0,95,0.00,,---,0.00,VWS V14.01,2013-03-25 08:07:00,
2013-03-25 04:12:00,27.9,26.7,29.53,NNW,338,8.0,12.0,95,0.00,,---,0.00,VWS V14.01,2013-03-25 08:12:00,
2013-03-25 04:18:00,27.9,26.7,29.53,NW,319,5.0,12.0,95,0.00,,---,0.00,VWS V14.01,2013-03-25 08:18:00,
2013-03-25 04:23:00,27.9,26.7,29.53,NE,53,7.0,12.0,95,0.00,,---,0.00,VWS V14.01,2013-03-25 08:23:00,
2013-03-25 04:28:00,27.8,26.6,29.53,North,3,13.0,13.0,95,0.00,,---,0.00,VWS V14.01,2013-03-25 08:28:00,
2013-03-25 04:30:00,27.9,26.7,29.53,North,349,8.0,13.0,95,0.00,,---,0.00,VWS V14.01,2013-03-25 08:30:00,
2013-03-25 04:33:00,27.9,26.7,29.53,NNE,18,15.0,15.0,95,0.00,,---,0.00,VWS V14.01,2013-03-25 08:33:00,
2013-03-25 04:38:00,27.9,26.7,29.53,NNE,27,10.0,15.0,95,0.00,,---,0.00,VWS V14.01,2013-03-25 08:38:00,
2013-03-25 04:43:00,27.8,26.6,29.53,North,360,7.0,15.0,95,0.00,,---,0.00,VWS V14.01,2013-03-25 08:43:00,
2013-03-25 04:48:00,27.8,26.6,29.53,North,1,10.0,15.0,95,0.00,,---,0.00,VWS V14.01,2013-03-25 08:48:00,
2013-03-25 04:53:00,27.8,26.6,29.53,NNE,23,5.0,15.0,95,0.00,,---,0.00,VWS V14.01,2013-03-25 08:53:00,
2013-03-25 04:58:00,27.8,26.6,29.53,NW,325,9.0,15.0,95,0.00,,---,0.00,VWS V14.01,2013-03-25 08:58:00,
2013-03-25 05:00:00,27.8,26.6,29.53,NNW,333,7.0,15.0,95,0.00,,---,0.00,VWS V14.01,2013-03-25 09:00:00,
2013-03-25 05:03:00,27.8,26.6,29.53,NNE,18,7.0,14.0,95,0.00,,---,0.00,VWS V14.01,2013-03-25 09:03:00,
2013-03-25 05:08:00,27.8,26.6,29.53,NNW,329,8.0,14.0,95,0.00,,---,0.00,VWS V14.01,2013-03-25 09:08:00,
2013-03-25 05:13:00,27.8,26.6,29.53,NNE,27,8.0,14.0,95,0.00,,---,0.00,VWS V14.01,2013-03-25 09:13:00,
2013-03-25 05:18:00,27.8,26.6,29.53,North,350,7.0,15.0,95,0.00,,---,0.00,VWS V14.01,2013-03-25 09:18:00,
2013-03-25 05:23:00,27.8,26.6,29.53,NNW,329,8.0,15.0,95,0.00,,---,0.00,VWS V14.01,2013-03-25 09:23:00,
2013-03-25 05:28:00,27.8,26.6,29.53,NNE,15,9.0,15.0,95,0.00,,---,0.00,VWS V14.01,2013-03-25 09:28:00,
2013-03-25 05:30:00,27.9,26.7,29.53,NNW,335,7.0,15.0,95,0.00,,---,0.00,VWS V14.01,2013-03-25 09:30:00,
2013-03-25 05:33:00,27.8,26.6,29.53,NNW,328,4.0,10.0,95,0.00,,---,0.00,VWS V14.01,2013-03-25 09:33:00,
2013-03-25 05:38:00,27.8,26.6,29.53,North,8,6.0,13.0,95,0.00,,---,0.00,VWS V14.01,2013-03-25 09:38:00,
2013-03-25 05:43:00,27.8,26.6,29.53,NNW,343,6.0,13.0,95,0.00,,---,0.00,VWS V14.01,2013-03-25 09:43:00,
2013-03-25 05:48:00,27.8,26.6,29.54,North,6,4.0,13.0,95,0.00,,---,0.00,VWS V14.01,2013-03-25 09:48:00,
2013-03-25 05:53:00,27.9,26.7,29.54,North,1,7.0,13.0,95,0.00,,---,0.00,VWS V14.01,2013-03-25 09:53:00,
2013-03-25 05:58:00,27.9,26.7,29.54,NW,325,7.0,13.0,95,0.00,,---,0.00,VWS V14.01,2013-03-25 09:58:00,
2013-03-25 06:00:00,27.9,26.7,29.54,NNW,333,7.0,13.0,95,0.00,,---,0.00,VWS V14.01,2013-03-25 10:00:00,
2013-03-25 06:03:00,27.9,26.7,29.54,NNW,327,7.0,11.0,95,0.00,,---,0.00,VWS V14.01,2013-03-25 10:03:00,
2013-03-25 06:08:00,27.9,26.7,29.54,North,354,12.0,13.0,95,0.00,,---,0.00,VWS V14.01,2013-03-25 10:08:00,
2013-03-25 06:13:00,27.9,26.7,29.54,North,5,9.0,14.0,95,0.00,,---,0.00,VWS V14.01,2013-03-25 10:13:00,
2013-03-25 06:18:00,28.0,26.8,29.54,NNW,348,8.0,14.0,95,0.00,,---,0.00,VWS V14.01,2013-03-25 10:18:00,
2013-03-25 06:23:00,28.0,26.8,29.54,NNW,330,5.0,14.0,95,0.00,,---,0.00,VWS V14.01,2013-03-25 10:23:00,
2013-03-25 06:28:00,28.0,26.8,29.54,NNW,333,7.0,14.0,95,0.00,,---,0.00,VWS V14.01,2013-03-25 10:28:00,
2013-03-25 06:30:00,28.0,26.8,29.54,NNW,333,6.0,14.0,95,0.00,,---,0.00,VWS V14.01,2013-03-25 10:30:00,
2013-03-25 06:33:00,28.0,26.8,29.55,NNW,337,9.0,10.0,95,0.00,,---,0.00,VWS V14.01,2013-03-25 10:33:00,
2013-03-25 06:38:00,28.1,26.9,29.55,NNW,344,6.0,15.0,95,0.00,,---,0.00,VWS V14.01,2013-03-25 10:38:00,
2013-03-25 06:43:00,28.1,26.9,29.55,North,360,7.0,15.0,95,0.00,,---,0.00,VWS V14.01,2013-03-25 10:43:00,
2013-03-25 06:48:00,28.1,26.9,29.55,North,349,8.0,15.0,95,0.00,,---,0.00,VWS V14.01,2013-03-25 10:48:00,
2013-03-25 06:54:00,28.1,26.6,29.55,NNW,335,5.0,15.0,94,0.00,,---,0.00,VWS V14.01,2013-03-25 10:54:00,
2013-03-25 06:59:00,28.1,26.6,29.55,NNW,337,7.0,15.0,94,0.00,,---,0.00,VWS V14.01,2013-03-25 10:59:00,
2013-03-25 07:00:00,28.1,26.6,29.55,NNE,15,7.0,15.0,94,0.00,,---,0.00,VWS V14.01,2013-03-25 11:00:00,
2013-03-25 07:04:00,28.1,26.6,29.55,NNW,331,10.0,11.0,94,0.00,,---,0.00,VWS V14.01,2013-03-25 11:04:00,
2013-03-25 07:09:00,28.1,26.6,29.56,NW,321,6.0,13.0,94,0.00,,---,0.00,VWS V14.01,2013-03-25 11:09:00,
2013-03-25 07:14:00,28.1,26.6,29.56,NNW,348,6.0,13.0,94,0.00,,---,0.00,VWS V14.01,2013-03-25 11:14:00,
2013-03-25 07:19:00,28.1,26.6,29.56,NW,317,5.0,13.0,94,0.00,,---,0.00,VWS V14.01,2013-03-25 11:19:00,
2013-03-25 07:24:00,28.1,26.6,29.56,NNW,339,5.0,13.0,94,0.00,,---,0.00,VWS V14.01,2013-03-25 11:24:00,
2013-03-25 07:29:00,28.2,26.7,29.56,NNW,346,9.0,13.0,94,0.00,,---,0.00,VWS V14.01,2013-03-25 11:29:00,
2013-03-25 07:30:00,28.2,26.7,29.56,NNW,338,5.0,13.0,94,0.00,,---,0.00,VWS V14.01,2013-03-25 11:30:00,
2013-03-25 07:34:00,28.1,26.6,29.57,NNW,338,6.0,10.0,94,0.00,,---,0.00,VWS V14.01,2013-03-25 11:34:00,
2013-03-25 07:39:00,28.1,26.6,29.57,North,1,7.0,10.0,94,0.00,,---,0.00,VWS V14.01,2013-03-25 11:39:00,
2013-03-25 07:44:00,28.2,26.7,29.57,NW,322,6.0,12.0,94,0.00,,---,0.00,VWS V14.01,2013-03-25 11:44:00,
2013-03-25 07:49:00,28.2,26.7,29.57,NW,316,7.0,13.0,94,0.00,,---,0.00,VWS V14.01,2013-03-25 11:49:00,
2013-03-25 07:54:00,28.1,26.6,29.57,NNW,345,6.0,13.0,94,0.00,,---,0.00,VWS V14.01,2013-03-25 11:54:00,
2013-03-25 07:59:00,28.2,26.7,29.57,NNW,329,6.0,13.0,94,0.00,,---,0.00,VWS V14.01,2013-03-25 11:59:00,
2013-03-25 08:00:00,28.2,26.7,29.57,NW,316,8.0,13.0,94,0.00,,---,0.00,VWS V14.01,2013-03-25 12:00:00,
2013-03-25 08:04:00,28.2,26.7,29.58,NW,321,8.0,12.0,94,0.00,,---,0.00,VWS V14.01,2013-03-25 12:04:00,
2013-03-25 08:09:00,28.2,26.7,29.58,NNW,333,6.0,12.0,94,0.00,,---,0.00,VWS V14.01,2013-03-25 12:09:00,
2013-03-25 08:14:00,28.2,26.7,29.58,NNW,340,6.0,12.0,94,0.00,,---,0.00,VWS V14.01,2013-03-25 12:14:00,
2013-03-25 08:19:00,28.3,26.8,29.58,NNW,329,5.0,12.0,94,0.00,,---,0.00,VWS V14.01,2013-03-25 12:19:00,
2013-03-25 08:24:00,28.3,26.8,29.58,NNW,337,7.0,12.0,94,0.00,,---,0.00,VWS V14.01,2013-03-25 12:24:00,
2013-03-25 08:29:00,28.3,26.8,29.58,NNW,343,6.0,12.0,94,0.00,,---,0.00,VWS V14.01,2013-03-25 12:29:00,
2013-03-25 08:30:00,28.4,26.9,29.58,NNW,344,6.0,12.0,94,0.00,,---,0.00,VWS V14.01,2013-03-25 12:30:00,
2013-03-25 08:34:00,28.4,27.1,29.59,NNW,345,7.0,14.0,95,0.00,,---,0.00,VWS V14.01,2013-03-25 12:34:00,
2013-03-25 08:39:00,28.5,27.2,29.59,NNW,336,7.0,14.0,95,0.00,,---,0.00,VWS V14.01,2013-03-25 12:39:00,
2013-03-25 08:44:00,28.6,27.4,29.59,NNW,344,7.0,14.0,95,0.00,,---,0.00,VWS V14.01,2013-03-25 12:44:00,
2013-03-25 08:49:00,28.7,27.5,29.59,NW,310,6.0,14.0,95,0.00,,---,0.00,VWS V14.01,2013-03-25 12:49:00,
2013-03-25 08:54:00,28.8,27.5,29.59,NNW,340,8.0,14.0,95,0.00,,---,0.00,VWS V14.01,2013-03-25 12:54:00,
2013-03-25 08:59:00,28.8,27.5,29.60,NNW,333,8.0,14.0,95,0.00,,---,0.00,VWS V14.01,2013-03-25 12:59:00,
2013-03-25 09:00:00,28.8,27.5,29.60,NNW,348,6.0,14.0,95,0.00,,---,0.00,VWS V14.01,2013-03-25 13:00:00,
2013-03-25 09:04:00,28.9,27.6,29.60,North,6,8.0,10.0,95,0.00,,---,0.00,VWS V14.01,2013-03-25 13:04:00,
2013-03-25 09:09:00,29.0,27.8,29.60,NNW,335,7.0,12.0,95,0.00,,---,0.00,VWS V14.01,2013-03-25 13:09:00,
2013-03-25 09:14:00,29.0,27.8,29.60,NW,323,6.0,13.0,95,0.00,,---,0.00,VWS V14.01,2013-03-25 13:14:00,
2013-03-25 09:19:00,29.1,27.6,29.60,NNW,341,6.0,13.0,94,0.00,,---,0.00,VWS V14.01,2013-03-25 13:19:00,
2013-03-25 09:24:00,29.2,27.7,29.60,NNW,342,6.0,13.0,94,0.00,,---,0.00,VWS V14.01,2013-03-25 13:24:00,
2013-03-25 09:29:00,29.3,27.8,29.61,North,356,10.0,13.0,94,0.00,,---,0.00,VWS V14.01,2013-03-25 13:29:00,
2013-03-25 09:30:00,29.3,27.8,29.61,NW,324,8.0,13.0,94,0.00,,---,0.00,VWS V14.01,2013-03-25 13:30:00,
2013-03-25 09:34:00,29.4,27.9,29.61,NW,316,7.0,11.0,94,0.00,,---,0.00,VWS V14.01,2013-03-25 13:34:00,
2013-03-25 09:39:00,29.4,27.9,29.61,NNW,333,5.0,13.0,94,0.00,,---,0.00,VWS V14.01,2013-03-25 13:39:00,
2013-03-25 09:44:00,29.5,28.0,29.61,NNW,346,6.0,16.0,94,0.00,,---,0.00,VWS V14.01,2013-03-25 13:44:00,
2013-03-25 09:49:00,29.6,28.1,29.61,NNW,340,6.0,16.0,94,0.00,,---,0.00,VWS V14.01,2013-03-25 13:49:00,
2013-03-25 09:54:00,29.7,28.2,29.62,NW,326,7.0,16.0,94,0.00,,---,0.00,VWS V14.01,2013-03-25 13:54:00,
2013-03-25 09:59:00,29.8,28.3,29.62,NNW,329,5.0,16.0,94,0.00,,---,0.00,VWS V14.01,2013-03-25 13:59:00,
2013-03-25 10:00:00,29.8,28.3,29.62,NNW,339,7.0,16.0,94,0.00,,---,0.00,VWS V14.01,2013-03-25 14:00:00,
2013-03-25 10:04:00,29.8,28.3,29.62,NNW,340,7.0,12.0,94,0.00,,---,0.00,VWS V14.01,2013-03-25 14:04:00,
2013-03-25 10:09:00,29.9,28.4,29.62,NNE,16,8.0,12.0,94,0.00,,---,0.00,VWS V14.01,2013-03-25 14:09:00,
2013-03-25 10:14:00,30.0,28.5,29.62,NNW,338,5.0,13.0,94,0.00,,---,0.00,VWS V14.01,2013-03-25 14:14:00,
2013-03-25 10:19:00,30.1,28.6,29.62,NNW,348,6.0,13.0,94,0.00,,---,0.00,VWS V14.01,2013-03-25 14:19:00,
2013-03-25 10:24:00,30.2,28.7,29.62,NNW,342,10.0,13.0,94,0.00,,---,0.00,VWS V14.01,2013-03-25 14:24:00,
2013-03-25 10:29:00,30.3,28.8,29.63,NW,309,8.0,13.0,94,0.00,,---,0.00,VWS V14.01,2013-03-25 14:29:00,
2013-03-25 10:30:00,30.3,28.8,29.63,North,356,8.0,13.0,94,0.00,,---,0.00,VWS V14.01,2013-03-25 14:30:00,
2013-03-25 10:34:00,30.4,28.6,29.63,WNW,301,7.0,14.0,93,0.00,,---,0.00,VWS V14.01,2013-03-25 14:34:00,
2013-03-25 10:39:00,30.5,28.7,29.63,NNW,330,6.0,14.0,93,0.00,,---,0.00,VWS V14.01,2013-03-25 14:39:00,
2013-03-25 10:44:00,30.6,28.8,29.63,North,5,7.0,15.0,93,0.00,,---,0.00,VWS V14.01,2013-03-25 14:44:00,
2013-03-25 10:49:00,30.8,29.0,29.64,NNW,347,9.0,15.0,93,0.00,,---,0.00,VWS V14.01,2013-03-25 14:49:00,
2013-03-25 10:55:00,30.8,29.0,29.64,NNW,344,7.0,15.0,93,0.00,,---,0.00,VWS V14.01,2013-03-25 14:55:00,
2013-03-25 11:00:00,31.0,29.2,29.64,NNW,345,9.0,15.0,93,0.00,,---,0.00,VWS V14.01,2013-03-25 15:00:00,
2013-03-25 11:05:00,31.1,29.3,29.64,NNW,335,11.0,14.0,93,0.00,,---,0.00,VWS V14.01,2013-03-25 15:05:00,
2013-03-25 11:10:00,31.1,29.0,29.64,NNW,342,8.0,15.0,92,0.00,,---,0.00,VWS V14.01,2013-03-25 15:10:00,
2013-03-25 11:15:00,31.2,29.1,29.64,NNW,344,13.0,15.0,92,0.00,,---,0.00,VWS V14.01,2013-03-25 15:15:00,
2013-03-25 11:20:00,31.3,29.0,29.65,NNE,20,9.0,16.0,91,0.00,,---,0.00,VWS V14.01,2013-03-25 15:20:00,
2013-03-25 11:25:00,31.4,29.1,29.65,North,360,8.0,16.0,91,0.00,,---,0.00,VWS V14.01,2013-03-25 15:25:00,
2013-03-25 11:30:00,31.6,29.0,29.65,NNW,329,7.0,17.0,90,0.00,,---,0.00,VWS V14.01,2013-03-25 15:30:00,
2013-03-25 11:35:00,31.6,29.0,29.65,NNW,335,14.0,14.0,90,0.00,,---,0.00,VWS V14.01,2013-03-25 15:35:00,
2013-03-25 11:40:00,31.7,29.1,29.66,NW,326,7.0,14.0,90,0.00,,---,0.00,VWS V14.01,2013-03-25 15:40:00,
2013-03-25 11:45:00,31.9,29.0,29.66,North,360,15.0,15.0,89,0.00,,---,0.00,VWS V14.01,2013-03-25 15:45:00,
2013-03-25 11:50:00,31.9,28.8,29.66,NNW,337,11.0,16.0,88,0.00,,---,0.00,VWS V14.01,2013-03-25 15:50:00,
2013-03-25 11:55:00,32.1,29.0,29.66,NW,321,5.0,16.0,88,0.00,,---,0.00,VWS V14.01,2013-03-25 15:55:00,
2013-03-25 12:00:00,32.2,29.0,29.67,NNW,330,6.0,16.0,88,0.00,,---,0.00,VWS V14.01,2013-03-25 16:00:00,
2013-03-25 12:05:00,32.4,29.0,29.67,NW,316,8.0,13.0,87,0.00,,---,0.00,VWS V14.01,2013-03-25 16:05:00,
2013-03-25 12:10:00,32.4,29.0,29.67,North,354,9.0,15.0,87,0.00,,---,0.00,VWS V14.01,2013-03-25 16:10:00,
2013-03-25 12:15:00,32.3,28.6,29.67,NNW,337,14.0,17.0,86,0.00,,---,0.00,VWS V14.01,2013-03-25 16:15:00,
2013-03-25 12:20:00,32.4,28.7,29.67,NNE,19,10.0,17.0,86,0.00,,---,0.00,VWS V14.01,2013-03-25 16:20:00,
2013-03-25 12:25:00,32.5,28.8,29.68,NNW,348,10.0,17.0,86,0.00,,---,0.00,VWS V14.01,2013-03-25 16:25:00,
2013-03-25 12:30:00,32.7,29.0,29.68,NNE,18,6.0,17.0,86,0.00,,---,0.00,VWS V14.01,2013-03-25 16:30:00,
2013-03-25 12:35:00,32.8,28.5,29.68,North,8,10.0,16.0,84,0.00,,---,0.00,VWS V14.01,2013-03-25 16:35:00,
2013-03-25 12:40:00,32.9,28.6,29.68,NW,326,6.0,17.0,84,0.01,,---,0.01,VWS V14.01,2013-03-25 16:40:00,
2013-03-25 12:45:00,33.0,28.4,29.69,North,352,10.0,17.0,83,0.01,,---,0.01,VWS V14.01,2013-03-25 16:45:00,
2013-03-25 12:50:00,33.2,28.6,29.68,NNW,338,9.0,17.0,83,0.02,,---,0.02,VWS V14.01,2013-03-25 16:50:00,
2013-03-25 12:55:00,33.4,28.8,29.69,North,358,12.0,17.0,83,0.02,,---,0.02,VWS V14.01,2013-03-25 16:55:00,
2013-03-25 13:00:00,33.7,29.1,29.69,NE,36,6.0,6.0,83,0.02,,---,0.02,VWS V14.01,2013-03-25 17:00:00,
2013-03-25 13:05:00,34.0,29.1,29.69,NNE,12,9.0,13.0,82,0.02,,---,0.02,VWS V14.01,2013-03-25 17:05:00,
2013-03-25 13:10:00,33.9,28.7,29.69,North,356,14.0,16.0,81,0.02,,---,0.02,VWS V14.01,2013-03-25 17:10:00,
2013-03-25 13:15:00,34.2,29.0,29.69,NNE,15,6.0,16.0,81,0.02,,---,0.02,VWS V14.01,2013-03-25 17:15:00,
2013-03-25 13:20:00,34.6,29.1,29.70,NNE,29,6.0,16.0,80,0.03,,---,0.03,VWS V14.01,2013-03-25 17:20:00,
2013-03-25 13:25:00,34.6,28.8,29.70,NW,325,11.0,16.0,79,0.03,,---,0.03,VWS V14.01,2013-03-25 17:25:00,
2013-03-25 13:30:00,34.3,28.8,29.70,NW,326,6.0,18.0,80,0.03,,---,0.03,VWS V14.01,2013-03-25 17:30:00,
2013-03-25 13:31:00,34.3,28.8,29.70,North,8,6.0,6.0,80,0.03,,---,0.03,VWS V14.01,2013-03-25 17:31:00,
2013-03-25 13:36:00,34.1,28.9,29.70,NW,323,12.0,15.0,81,0.04,,---,0.04,VWS V14.01,2013-03-25 17:36:00,
2013-03-25 13:41:00,34.0,29.4,29.71,North,6,8.0,15.0,83,0.04,,---,0.04,VWS V14.01,2013-03-25 17:41:00,
2013-03-25 13:46:00,34.3,29.4,29.71,NW,316,7.0,15.0,82,0.04,,---,0.04,VWS V14.01,2013-03-25 17:46:00,
2013-03-25 13:51:00,34.1,29.5,29.71,NW,323,9.0,15.0,83,0.05,,---,0.05,VWS V14.01,2013-03-25 17:51:00,
2013-03-25 13:56:00,34.3,30.0,29.71,North,1,11.0,15.0,84,0.05,,---,0.05,VWS V14.01,2013-03-25 17:56:00,
2013-03-25 14:00:00,34.4,30.1,29.71,NNW,341,7.0,15.0,84,0.05,,---,0.05,VWS V14.01,2013-03-25 18:00:00,
2013-03-25 14:01:00,34.4,30.1,29.71,NNW,335,5.0,9.0,84,0.03,,---,0.05,VWS V14.01,2013-03-25 18:01:00,
2013-03-25 14:06:00,34.4,29.8,29.71,NW,321,6.0,12.0,83,0.04,,---,0.06,VWS V14.01,2013-03-25 18:06:00,
2013-03-25 14:12:00,34.5,29.9,29.71,NW,326,8.0,17.0,83,0.04,,---,0.06,VWS V14.01,2013-03-25 18:12:00,
2013-03-25 14:17:00,34.5,29.6,29.72,NNW,347,9.0,17.0,82,0.04,,---,0.06,VWS V14.01,2013-03-25 18:17:00,
2013-03-25 14:22:00,34.6,29.4,29.72,NE,40,12.0,17.0,81,0.05,,---,0.07,VWS V14.01,2013-03-25 18:22:00,
2013-03-25 14:27:00,34.8,29.9,29.72,NE,43,10.0,17.0,82,0.05,,---,0.07,VWS V14.01,2013-03-25 18:27:00,
2013-03-25 14:30:00,34.8,29.9,29.72,NNW,340,6.0,17.0,82,0.05,,---,0.07,VWS V14.01,2013-03-25 18:30:00,
2013-03-25 14:32:00,34.8,29.9,29.72,NNW,332,4.0,7.0,82,0.04,,---,0.07,VWS V14.01,2013-03-25 18:32:00,
2013-03-25 14:37:00,35.1,29.9,29.72,NNE,25,8.0,13.0,81,0.04,,---,0.07,VWS V14.01,2013-03-25 18:37:00,
2013-03-25 14:42:00,35.1,30.2,29.72,NNW,339,5.0,14.0,82,0.04,,---,0.07,VWS V14.01,2013-03-25 18:42:00,
2013-03-25 14:47:00,35.0,30.1,29.72,NNW,343,8.0,14.0,82,0.04,,---,0.07,VWS V14.01,2013-03-25 18:47:00,
2013-03-25 14:52:00,34.9,30.0,29.73,NNW,331,7.0,14.0,82,0.05,,---,0.08,VWS V14.01,2013-03-25 18:52:00,
2013-03-25 14:57:00,35.0,29.8,29.73,NNW,344,9.0,14.0,81,0.05,,---,0.08,VWS V14.01,2013-03-25 18:57:00,
2013-03-25 15:00:00,34.9,29.7,29.73,NW,317,9.0,14.0,81,0.05,,---,0.08,VWS V14.01,2013-03-25 19:00:00,
2013-03-25 15:02:00,34.8,29.6,29.73,NNW,328,7.0,12.0,81,0.03,,---,0.08,VWS V14.01,2013-03-25 19:02:00,
2013-03-25 15:07:00,34.9,30.0,29.73,NNW,348,9.0,12.0,82,0.03,,---,0.08,VWS V14.01,2013-03-25 19:07:00,
2013-03-25 15:12:00,35.1,28.9,29.73,NNW,342,10.0,16.0,78,0.03,,---,0.08,VWS V14.01,2013-03-25 19:12:00,
2013-03-25 15:17:00,35.5,28.7,29.73,North,354,8.0,16.0,76,0.03,,---,0.08,VWS V14.01,2013-03-25 19:17:00,
2013-03-25 15:22:00,35.4,28.6,29.74,North,6,10.0,19.0,76,0.03,,---,0.08,VWS V14.01,2013-03-25 19:22:00,
2013-03-25 15:27:00,35.5,28.7,29.74,NNW,344,7.0,19.0,76,0.03,,---,0.08,VWS V14.01,2013-03-25 19:27:00,
2013-03-25 15:30:00,35.9,28.4,29.74,NW,318,12.0,19.0,74,0.03,,---,0.08,VWS V14.01,2013-03-25 19:30:00,
2013-03-25 15:32:00,36.0,28.5,29.74,NNW,328,10.0,14.0,74,0.01,,---,0.08,VWS V14.01,2013-03-25 19:32:00,
2013-03-25 15:37:00,36.4,28.9,29.74,NNW,327,4.0,14.0,74,0.01,,---,0.08,VWS V14.01,2013-03-25 19:37:00,
2013-03-25 15:42:00,36.5,28.4,29.74,NW,314,11.0,14.0,72,0.01,,---,0.08,VWS V14.01,2013-03-25 19:42:00,
2013-03-25 15:47:00,36.6,28.1,29.74,North,353,9.0,14.0,71,0.01,,---,0.08,VWS V14.01,2013-03-25 19:47:00,
2013-03-25 15:52:00,36.6,28.1,29.74,NNW,330,14.0,22.0,71,0.01,,---,0.08,VWS V14.01,2013-03-25 19:52:00,
2013-03-25 15:57:00,36.4,27.9,29.75,NW,323,14.0,22.0,71,0.01,,---,0.08,VWS V14.01,2013-03-25 19:57:00,
2013-03-25 16:00:00,36.3,27.5,29.75,NNW,330,15.0,22.0,70,0.01,,---,0.08,VWS V14.01,2013-03-25 20:00:00,
2013-03-25 16:02:00,36.3,27.8,29.75,NNW,333,13.0,17.0,71,0.00,,---,0.08,VWS V14.01,2013-03-25 20:02:00,
2013-03-25 16:07:00,36.4,27.9,29.75,NNW,330,13.0,17.0,71,0.00,,---,0.08,VWS V14.01,2013-03-25 20:07:00,
2013-03-25 16:12:00,36.5,27.7,29.75,North,356,8.0,18.0,70,0.00,,---,0.08,VWS V14.01,2013-03-25 20:12:00,
2013-03-25 16:17:00,36.4,27.9,29.76,NNE,15,16.0,18.0,71,0.00,,---,0.08,VWS V14.01,2013-03-25 20:17:00,
2013-03-25 16:22:00,36.1,28.3,29.76,NNW,333,10.0,18.0,73,0.00,,---,0.08,VWS V14.01,2013-03-25 20:22:00,
2013-03-25 16:27:00,35.9,28.8,29.76,NNW,337,10.0,18.0,75,0.00,,---,0.08,VWS V14.01,2013-03-25 20:27:00,
2013-03-25 16:30:00,35.9,28.4,29.76,NW,325,6.0,18.0,74,0.00,,---,0.08,VWS V14.01,2013-03-25 20:30:00,
2013-03-25 16:33:00,35.9,28.8,29.76,NW,325,8.0,13.0,75,0.00,,---,0.08,VWS V14.01,2013-03-25 20:33:00,
2013-03-25 16:37:00,35.9,28.8,29.76,NNW,343,7.0,13.0,75,0.00,,---,0.08,VWS V14.01,2013-03-25 20:37:00,
2013-03-25 16:43:00,35.9,28.1,29.77,NNW,342,9.0,15.0,73,0.00,,---,0.08,VWS V14.01,2013-03-25 20:43:00,
2013-03-25 16:48:00,36.1,28.0,29.77,North,6,20.0,20.0,72,0.00,,---,0.08,VWS V14.01,2013-03-25 20:48:00,
2013-03-25 16:53:00,36.5,27.7,29.77,North,8,8.0,20.0,70,0.00,,---,0.08,VWS V14.01,2013-03-25 20:53:00,
2013-03-25 16:58:00,36.7,27.5,29.77,NW,307,8.0,20.0,69,0.00,,---,0.08,VWS V14.01,2013-03-25 20:58:00,
2013-03-25 17:00:00,36.7,27.5,29.77,NNW,335,17.0,20.0,69,0.00,,---,0.08,VWS V14.01,2013-03-25 21:00:00,
2013-03-25 17:03:00,36.6,27.0,29.77,NNW,342,14.0,19.0,68,0.00,,---,0.08,VWS V14.01,2013-03-25 21:03:00,
2013-03-25 17:08:00,36.5,27.0,29.77,NNW,330,7.0,19.0,68,0.00,,---,0.08,VWS V14.01,2013-03-25 21:08:00,
2013-03-25 17:13:00,36.6,27.4,29.78,NW,323,10.0,19.0,69,0.00,,---,0.08,VWS V14.01,2013-03-25 21:13:00,
2013-03-25 17:18:00,36.5,27.0,29.78,North,8,14.0,19.0,68,0.00,,---,0.08,VWS V14.01,2013-03-25 21:18:00,
2013-03-25 17:23:00,36.6,27.0,29.78,NNW,330,13.0,20.0,68,0.00,,---,0.08,VWS V14.01,2013-03-25 21:23:00,
2013-03-25 17:28:00,36.7,27.1,29.78,NNE,20,8.0,21.0,68,0.00,,---,0.08,VWS V14.01,2013-03-25 21:28:00,
2013-03-25 17:30:00,36.7,27.1,29.78,North,359,10.0,21.0,68,0.00,,---,0.08,VWS V14.01,2013-03-25 21:30:00,
2013-03-25 17:33:00,36.8,27.2,29.79,NW,323,7.0,15.0,68,0.00,,---,0.08,VWS V14.01,2013-03-25 21:33:00,
2013-03-25 17:38:00,36.9,27.3,29.79,North,356,18.0,18.0,68,0.00,,---,0.08,VWS V14.01,2013-03-25 21:38:00,
2013-03-25 17:43:00,36.6,27.8,29.79,NNW,340,12.0,22.0,70,0.00,,---,0.08,VWS V14.01,2013-03-25 21:43:00,
2013-03-25 17:48:00,36.5,27.7,29.80,NNW,342,9.0,22.0,70,0.00,,---,0.08,VWS V14.01,2013-03-25 21:48:00,
2013-03-25 17:53:00,36.6,27.4,29.80,NNW,344,9.0,22.0,69,0.00,,---,0.08,VWS V14.01,2013-03-25 21:53:00,
2013-03-25 17:58:00,36.4,27.6,29.80,NNW,348,9.0,22.0,70,0.00,,---,0.08,VWS V14.01,2013-03-25 21:58:00,
2013-03-25 18:00:00,36.4,27.6,29.81,NNW,336,8.0,22.0,70,0.00,,---,0.08,VWS V14.01,2013-03-25 22:00:00,
2013-03-25 18:03:00,36.4,27.9,29.81,NNW,347,10.0,15.0,71,0.00,,---,0.08,VWS V14.01,2013-03-25 22:03:00,
2013-03-25 18:08:00,36.2,28.1,29.81,NW,323,11.0,18.0,72,0.00,,---,0.08,VWS V14.01,2013-03-25 22:08:00,
2013-03-25 18:13:00,36.1,28.3,29.81,NNW,330,6.0,18.0,73,0.00,,---,0.08,VWS V14.01,2013-03-25 22:13:00,
2013-03-25 18:18:00,36.2,28.4,29.81,NNW,328,7.0,18.0,73,0.00,,---,0.08,VWS V14.01,2013-03-25 22:18:00,
2013-03-25 18:23:00,36.3,28.5,29.82,NW,304,7.0,18.0,73,0.00,,---,0.08,VWS V14.01,2013-03-25 22:23:00,
2013-03-25 18:28:00,36.2,28.1,29.82,North,349,16.0,18.0,72,0.00,,---,0.08,VWS V14.01,2013-03-25 22:28:00,
2013-03-25 18:30:00,36.1,27.6,29.82,NNW,329,9.0,18.0,71,0.00,,---,0.08,VWS V14.01,2013-03-25 22:30:00,
2013-03-25 18:33:00,36.1,27.6,29.82,NW,316,12.0,19.0,71,0.00,,---,0.08,VWS V14.01,2013-03-25 22:33:00,
2013-03-25 18:38:00,36.0,27.9,29.82,WNW,301,6.0,19.0,72,0.00,,---,0.08,VWS V14.01,2013-03-25 22:38:00,
2013-03-25 18:43:00,36.0,27.5,29.83,NW,313,7.0,19.0,71,0.00,,---,0.08,VWS V14.01,2013-03-25 22:43:00,
2013-03-25 18:48:00,35.9,27.4,29.83,NNW,348,14.0,19.0,71,0.00,,---,0.08,VWS V14.01,2013-03-25 22:48:00,
2013-03-25 18:53:00,35.8,27.3,29.84,NNW,335,10.0,19.0,71,0.00,,---,0.08,VWS V14.01,2013-03-25 22:53:00,
2013-03-25 18:58:00,35.6,27.1,29.84,NNW,333,11.0,19.0,71,0.00,,---,0.08,VWS V14.01,2013-03-25 22:58:00,
2013-03-25 19:00:00,35.7,27.2,29.84,NNW,331,8.0,19.0,71,0.00,,---,0.08,VWS V14.01,2013-03-25 23:00:00,
2013-03-25 19:03:00,35.6,27.1,29.84,NW,326,12.0,12.0,71,0.00,,---,0.08,VWS V14.01,2013-03-25 23:03:00,
2013-03-25 19:08:00,35.6,27.1,29.84,NNW,332,11.0,15.0,71,0.00,,---,0.08,VWS V14.01,2013-03-25 23:08:00,
2013-03-25 19:13:00,35.5,27.4,29.85,NNE,16,9.0,16.0,72,0.00,,---,0.08,VWS V14.01,2013-03-25 23:13:00,
2013-03-25 19:18:00,35.5,27.4,29.85,NE,39,10.0,16.0,72,0.00,,---,0.08,VWS V14.01,2013-03-25 23:18:00,
2013-03-25 19:23:00,35.5,27.4,29.85,NW,323,7.0,16.0,72,0.00,,---,0.08,VWS V14.01,2013-03-25 23:23:00,
2013-03-25 19:28:00,35.5,27.4,29.85,NNW,332,5.0,16.0,72,0.00,,---,0.08,VWS V14.01,2013-03-25 23:28:00,
2013-03-25 19:30:00,35.4,27.6,29.86,NNW,332,6.0,16.0,73,0.00,,---,0.08,VWS V14.01,2013-03-25 23:30:00,
2013-03-25 19:33:00,35.4,27.6,29.86,NNW,343,5.0,12.0,73,0.00,,---,0.08,VWS V14.01,2013-03-25 23:33:00,
2013-03-25 19:38:00,35.3,27.5,29.86,NW,309,6.0,12.0,73,0.00,,---,0.08,VWS V14.01,2013-03-25 23:38:00,
2013-03-25 19:43:00,35.4,27.6,29.87,NW,319,4.0,12.0,73,0.00,,---,0.08,VWS V14.01,2013-03-25 23:43:00,
2013-03-25 19:48:00,35.4,27.3,29.87,NNW,329,5.0,12.0,72,0.00,,---,0.08,VWS V14.01,2013-03-25 23:48:00,
2013-03-25 19:53:00,35.4,27.6,29.87,NW,326,8.0,12.0,73,0.00,,---,0.08,VWS V14.01,2013-03-25 23:53:00,
2013-03-25 19:58:00,35.3,27.5,29.87,NNW,344,8.0,12.0,73,0.00,,---,0.08,VWS V14.01,2013-03-25 23:58:00,
2013-03-25 20:00:00,35.3,27.5,29.87,North,6,13.0,13.0,73,0.00,,---,0.08,VWS V14.01,2013-03-26 00:00:00,
2013-03-25 20:03:00,35.3,27.5,29.88,North,358,12.0,13.0,73,0.00,,---,0.08,VWS V14.01,2013-03-26 00:03:00,
2013-03-25 20:09:00,35.3,27.5,29.88,WNW,298,4.0,13.0,73,0.00,,---,0.08,VWS V14.01,2013-03-26 00:09:00,
2013-03-25 20:14:00,35.2,27.8,29.88,NNW,327,14.0,16.0,74,0.00,,---,0.08,VWS V14.01,2013-03-26 00:14:00,
2013-03-25 20:19:00,34.9,27.8,29.89,NNW,330,6.0,16.0,75,0.00,,---,0.08,VWS V14.01,2013-03-26 00:19:00,
2013-03-25 20:24:00,34.7,27.9,29.89,NNW,338,6.0,16.0,76,0.00,,---,0.08,VWS V14.01,2013-03-26 00:24:00,
2013-03-25 20:29:00,34.6,28.1,29.89,NNW,338,6.0,16.0,77,0.00,,---,0.08,VWS V14.01,2013-03-26 00:29:00,
2013-03-25 20:30:00,34.5,28.0,29.89,NW,321,5.0,16.0,77,0.00,,---,0.08,VWS V14.01,2013-03-26 00:30:00,
2013-03-25 20:34:00,34.5,28.0,29.90,NNW,340,6.0,9.0,77,0.00,,---,0.08,VWS V14.01,2013-03-26 00:34:00,
2013-03-25 20:39:00,34.4,28.0,29.90,NW,308,5.0,9.0,77,0.00,,---,0.08,VWS V14.01,2013-03-26 00:39:00,
2013-03-25 20:44:00,34.4,28.0,29.90,NW,316,4.0,9.0,77,0.00,,---,0.08,VWS V14.01,2013-03-26 00:44:00,
2013-03-25 20:49:00,34.4,28.3,29.91,NW,317,3.0,9.0,78,0.00,,---,0.08,VWS V14.01,2013-03-26 00:49:00,
2013-03-25 20:54:00,34.3,28.5,29.91,WNW,298,5.0,9.0,79,0.00,,---,0.08,VWS V14.01,2013-03-26 00:54:00,
2013-03-25 20:59:00,34.1,28.6,29.91,NW,314,3.0,9.0,80,0.00,,---,0.08,VWS V14.01,2013-03-26 00:59:00,
2013-03-25 21:00:00,34.1,28.9,29.91,NW,312,5.0,9.0,81,0.00,,---,0.08,VWS V14.01,2013-03-26 01:00:00,
2013-03-25 21:04:00,34.0,28.8,29.91,NW,315,1.0,6.0,81,0.00,,---,0.08,VWS V14.01,2013-03-26 01:04:00,
2013-03-25 21:09:00,33.9,29.0,29.91,NW,316,1.0,6.0,82,0.00,,---,0.08,VWS V14.01,2013-03-26 01:09:00,
2013-03-25 21:14:00,33.8,29.2,29.91,NW,306,2.0,7.0,83,0.00,,---,0.08,VWS V14.01,2013-03-26 01:14:00,
2013-03-25 21:19:00,33.7,29.4,29.92,WNW,300,9.0,9.0,84,0.00,,---,0.08,VWS V14.01,2013-03-26 01:19:00,
2013-03-25 21:24:00,33.7,29.4,29.92,NNW,327,4.0,9.0,84,0.00,,---,0.08,VWS V14.01,2013-03-26 01:24:00,
2013-03-25 21:29:00,33.7,29.4,29.92,NW,314,4.0,9.0,84,0.00,,---,0.08,VWS V14.01,2013-03-26 01:29:00,
2013-03-25 21:30:00,33.7,29.4,29.92,West,280,4.0,9.0,84,0.00,,---,0.08,VWS V14.01,2013-03-26 01:30:00,
2013-03-25 21:34:00,33.7,29.4,29.92,NW,317,2.0,8.0,84,0.00,,---,0.08,VWS V14.01,2013-03-26 01:34:00,
2013-03-25 21:39:00,33.7,29.4,29.93,WNW,298,1.0,8.0,84,0.00,,---,0.08,VWS V14.01,2013-03-26 01:39:00,
2013-03-25 21:44:00,33.7,29.4,29.93,NW,314,3.0,8.0,84,0.00,,---,0.08,VWS V14.01,2013-03-26 01:44:00,
2013-03-25 21:49:00,33.7,29.1,29.93,NW,316,3.0,8.0,83,0.00,,---,0.08,VWS V14.01,2013-03-26 01:49:00,
2013-03-25 21:54:00,33.7,29.1,29.93,NW,307,2.0,8.0,83,0.00,,---,0.08,VWS V14.01,2013-03-26 01:54:00,
2013-03-25 21:59:00,33.7,29.1,29.93,WNW,303,3.0,8.0,83,0.00,,---,0.08,VWS V14.01,2013-03-26 01:59:00,
2013-03-25 22:00:00,33.7,29.1,29.93,NW,307,4.0,8.0,83,0.00,,---,0.08,VWS V14.01,2013-03-26 02:00:00,
2013-03-25 22:04:00,33.7,29.1,29.93,NW,304,2.0,8.0,83,0.00,,---,0.08,VWS V14.01,2013-03-26 02:04:00,
2013-03-25 22:09:00,33.7,28.8,29.94,NW,315,2.0,8.0,82,0.00,,---,0.08,VWS V14.01,2013-03-26 02:09:00,
2013-03-25 22:14:00,33.7,28.8,29.94,NW,306,4.0,8.0,82,0.00,,---,0.08,VWS V14.01,2013-03-26 02:14:00,
2013-03-25 22:19:00,33.7,28.8,29.94,NW,309,3.0,8.0,82,0.00,,---,0.08,VWS V14.01,2013-03-26 02:19:00,
2013-03-25 22:24:00,33.6,28.7,29.94,NNW,329,5.0,8.0,82,0.00,,---,0.08,VWS V14.01,2013-03-26 02:24:00,
2013-03-25 22:29:00,33.5,28.9,29.94,NW,319,2.0,8.0,83,0.00,,---,0.08,VWS V14.01,2013-03-26 02:29:00,
2013-03-25 22:30:00,33.5,28.9,29.94,NW,312,5.0,8.0,83,0.00,,---,0.08,VWS V14.01,2013-03-26 02:30:00,
2013-03-25 22:34:00,33.5,28.9,29.95,NW,304,3.0,7.0,83,0.00,,---,0.08,VWS V14.01,2013-03-26 02:34:00,
2013-03-25 22:39:00,33.4,29.1,29.95,WNW,288,1.0,7.0,84,0.00,,---,0.08,VWS V14.01,2013-03-26 02:39:00,
2013-03-25 22:44:00,33.4,29.1,29.95,NW,312,2.0,7.0,84,0.00,,---,0.08,VWS V14.01,2013-03-26 02:44:00,
2013-03-25 22:49:00,33.3,29.0,29.95,WNW,283,3.0,7.0,84,0.00,,---,0.08,VWS V14.01,2013-03-26 02:49:00,
2013-03-25 22:54:00,33.2,29.2,29.95,NW,311,4.0,7.0,85,0.00,,---,0.08,VWS V14.01,2013-03-26 02:54:00,
2013-03-25 22:59:00,33.2,29.2,29.95,NW,322,4.0,7.0,85,0.00,,---,0.08,VWS V14.01,2013-03-26 02:59:00,
2013-03-25 23:00:00,33.2,29.2,29.95,NW,315,3.0,7.0,85,0.00,,---,0.08,VWS V14.01,2013-03-26 03:00:00,
2013-03-25 23:04:00,33.1,29.1,29.95,NW,312,4.0,4.0,85,0.00,,---,0.08,VWS V14.01,2013-03-26 03:04:00,
2013-03-25 23:09:00,33.0,29.0,29.95,NW,304,1.0,6.0,85,0.00,,---,0.08,VWS V14.01,2013-03-26 03:09:00,
2013-03-25 23:14:00,32.9,28.9,29.95,WNW,295,2.0,6.0,85,0.00,,---,0.08,VWS V14.01,2013-03-26 03:14:00,
2013-03-25 23:19:00,32.8,28.8,29.95,WNW,298,4.0,6.0,85,0.00,,---,0.08,VWS V14.01,2013-03-26 03:19:00,
2013-03-25 23:24:00,32.8,28.8,29.95,NW,317,3.0,7.0,85,0.00,,---,0.08,VWS V14.01,2013-03-26 03:24:00,
2013-03-25 23:30:00,32.7,28.7,29.96,NW,316,3.0,7.0,85,0.00,,---,0.08,VWS V14.01,2013-03-26 03:30:00,
2013-03-25 23:35:00,32.7,28.7,29.96,NW,316,2.0,4.0,85,0.00,,---,0.08,VWS V14.01,2013-03-26 03:35:00,
2013-03-25 23:40:00,32.8,28.8,29.96,NW,308,4.0,8.0,85,0.00,,---,0.08,VWS V14.01,2013-03-26 03:40:00,
2013-03-25 23:45:00,32.8,28.8,29.96,NW,321,6.0,8.0,85,0.00,,---,0.08,VWS V14.01,2013-03-26 03:45:00,
2013-03-25 23:50:00,32.8,28.8,29.96,NW,308,5.0,8.0,85,0.00,,---,0.08,VWS V14.01,2013-03-26 03:50:00,
2013-03-25 23:55:00,32.9,28.6,29.96,NW,309,4.0,8.0,84,0.00,,---,0.08,VWS V14.01,2013-03-26 03:55:00,